SUR5186 SLPO-SCEL

Flight info

Callsign SUR5186
Flight time 2h 35m
Altitude 37000
Route IVSOS UN525 SAL/N0455F380 UL322 ASIMO ASIMO5C
Aircraft B737/M-SDE2E3FGHIRWXY/LB1

Departure

Time 2026-05-05 17:31
Airport Capitan Nicolas Rojas Airport (SLPO)

Arrival

Time 2026-05-05 20:06
Airport Comodoro Arturo Merino Benítez International Airport (SCEL)
Time Latitude Longitude Altitude Speed Heading
2026-05-05 17:14 -19.54324 -65.72031 12638 ft 0 kts 96°
2026-05-05 17:22 -19.54323 -65.72028 12631 ft 1 kts 84°
2026-05-05 17:22 -19.54310 -65.72015 12631 ft 4 kts 25°
2026-05-05 17:22 -19.54280 -65.72021 12630 ft 5 kts 335°
2026-05-05 17:23 -19.54247 -65.72039 12629 ft 6 kts 327°
2026-05-05 17:23 -19.54215 -65.72061 12631 ft 5 kts 326°
2026-05-05 17:23 -19.54184 -65.72083 12632 ft 5 kts 327°
2026-05-05 17:23 -19.54158 -65.72110 12633 ft 5 kts 292°
2026-05-05 17:24 -19.54167 -65.72147 12635 ft 5 kts 240°
2026-05-05 17:24 -19.54218 -65.72228 12641 ft 19 kts 236°
2026-05-05 17:24 -19.54290 -65.72341 12647 ft 18 kts 236°
2026-05-05 17:24 -19.54361 -65.72451 12656 ft 18 kts 236°
2026-05-05 17:25 -19.54429 -65.72556 12665 ft 17 kts 235°
2026-05-05 17:25 -19.54473 -65.72623 12671 ft 17 kts 236°
2026-05-05 17:25 -19.54555 -65.72754 12681 ft 16 kts 236°
2026-05-05 17:25 -19.54615 -65.72848 12690 ft 15 kts 236°
2026-05-05 17:26 -19.54673 -65.72939 12699 ft 14 kts 236°
2026-05-05 17:26 -19.54728 -65.73025 12705 ft 14 kts 236°
2026-05-05 17:26 -19.54784 -65.73114 12714 ft 17 kts 236°
2026-05-05 17:26 -19.54860 -65.73235 12717 ft 22 kts 236°
2026-05-05 17:27 -19.54942 -65.73361 12726 ft 20 kts 236°
2026-05-05 17:27 -19.55002 -65.73452 12732 ft 11 kts 233°
2026-05-05 17:27 -19.55005 -65.73456 12732 ft 0 kts 242°
2026-05-05 17:27 -19.55005 -65.73457 12732 ft 0 kts 248°
2026-05-05 17:28 -19.55004 -65.73458 12733 ft 0 kts 261°
2026-05-05 17:28 -19.55003 -65.73459 12733 ft 0 kts 279°
2026-05-05 17:28 -19.55002 -65.73459 12733 ft 0 kts 301°
2026-05-05 17:28 -19.54997 -65.73458 12731 ft 1 kts
2026-05-05 17:29 -19.54991 -65.73447 12734 ft 1 kts 57°
2026-05-05 17:29 -19.54991 -65.73446 12734 ft 0 kts 57°
2026-05-05 17:29 -19.54990 -65.73446 12733 ft 2 kts 57°
2026-05-05 17:30 -19.54880 -65.73267 12719 ft 61 kts 56°
2026-05-05 17:30 -19.54526 -65.72713 12678 ft 119 kts 56°
2026-05-05 17:30 -19.53964 -65.71832 12613 ft 167 kts 56°
2026-05-05 17:30 -19.53260 -65.70749 13074 ft 177 kts 56°
2026-05-05 17:31 -19.52585 -65.69692 13599 ft 170 kts 58°
2026-05-05 17:31 -19.52018 -65.68591 13751 ft 177 kts 69°
2026-05-05 17:31 -19.51695 -65.67283 14025 ft 189 kts 82°
2026-05-05 17:31 -19.51544 -65.65851 14357 ft 202 kts 84°
2026-05-05 17:32 -19.51390 -65.64307 14597 ft 214 kts 83°
2026-05-05 17:32 -19.51186 -65.62719 14909 ft 226 kts 82°
2026-05-05 17:32 -19.50927 -65.61042 15335 ft 231 kts 80°
2026-05-05 17:32 -19.50634 -65.59377 15924 ft 228 kts 77°
2026-05-05 17:33 -19.50123 -65.57758 16290 ft 238 kts 66°
2026-05-05 17:33 -19.49292 -65.56192 16614 ft 248 kts 54°
2026-05-05 17:33 -19.48167 -65.54827 17113 ft 251 kts 40°
2026-05-05 17:33 -19.46685 -65.53785 17454 ft 263 kts 25°
2026-05-05 17:34 -19.44916 -65.53154 17830 ft 272 kts
2026-05-05 17:34 -19.43027 -65.53064 18395 ft 275 kts 354°
2026-05-05 17:34 -19.41078 -65.53440 18554 ft 298 kts 342°
2026-05-05 17:34 -19.39097 -65.54320 18808 ft 315 kts 328°
2026-05-05 17:35 -19.37396 -65.55797 19367 ft 319 kts 309°
2026-05-05 17:35 -19.36321 -65.57833 19845 ft 328 kts 285°
2026-05-05 17:35 -19.36105 -65.60245 20406 ft 332 kts 263°
2026-05-05 17:35 -19.36737 -65.62576 21253 ft 328 kts 242°
2026-05-05 17:36 -19.38092 -65.64504 22028 ft 330 kts 223°
2026-05-05 17:36 -19.39922 -65.66015 22597 ft 337 kts 214°
2026-05-05 17:36 -19.41936 -65.67344 23202 ft 342 kts 211°
2026-05-05 17:36 -19.43990 -65.68581 24056 ft 336 kts 211°
2026-05-05 17:37 -19.46090 -65.69779 24320 ft 352 kts 205°
2026-05-05 17:37 -19.47673 -65.70299 24357 ft 367 kts 192°
2026-05-05 17:37 -19.51124 -65.70873 24526 ft 390 kts 189°
2026-05-05 17:37 -19.52724 -65.71096 24598 ft 399 kts 188°
2026-05-05 17:38 -19.55540 -65.71431 24698 ft 415 kts 187°
2026-05-05 17:38 -19.58474 -65.71752 24811 ft 428 kts 187°
2026-05-05 17:38 -19.61461 -65.72079 25125 ft 433 kts 187°
2026-05-05 17:38 -19.64462 -65.72417 25583 ft 434 kts 187°
2026-05-05 17:39 -19.67469 -65.72766 26053 ft 435 kts 188°
2026-05-05 17:39 -19.70494 -65.73125 26469 ft 438 kts 188°
2026-05-05 17:39 -19.73509 -65.73488 26859 ft 441 kts 188°
2026-05-05 17:39 -19.76575 -65.73858 27270 ft 443 kts 188°
2026-05-05 17:40 -19.79650 -65.74230 27672 ft 445 kts 188°
2026-05-05 17:40 -19.82748 -65.74604 28052 ft 448 kts 188°
2026-05-05 17:40 -19.85852 -65.74979 28422 ft 450 kts 188°
2026-05-05 17:40 -19.88937 -65.75352 28790 ft 453 kts 189°
2026-05-05 17:41 -19.92116 -65.75735 29185 ft 454 kts 189°
2026-05-05 17:41 -19.95226 -65.76112 29560 ft 456 kts 189°
2026-05-05 17:41 -19.98394 -65.76495 29851 ft 460 kts 189°
2026-05-05 17:41 -20.01591 -65.76872 30155 ft 462 kts 187°
2026-05-05 17:42 -20.04821 -65.76950 30438 ft 467 kts 179°
2026-05-05 17:42 -20.08069 -65.76558 30674 ft 471 kts 175°
2026-05-05 17:42 -20.11286 -65.76049 30898 ft 473 kts 174°
2026-05-05 17:42 -20.14565 -65.75497 31099 ft 475 kts 174°
2026-05-05 17:43 -20.17839 -65.74942 31371 ft 476 kts 174°
2026-05-05 17:43 -20.21114 -65.74399 31756 ft 474 kts 175°
2026-05-05 17:43 -20.24382 -65.73871 32168 ft 473 kts 175°
2026-05-05 17:43 -20.27636 -65.73357 32522 ft 473 kts 175°
2026-05-05 17:44 -20.30893 -65.72849 32930 ft 471 kts 175°
2026-05-05 17:44 -20.34094 -65.72354 33374 ft 469 kts 176°
2026-05-05 17:44 -20.37323 -65.71855 33752 ft 468 kts 176°
2026-05-05 17:44 -20.40559 -65.71356 34115 ft 468 kts 176°
2026-05-05 17:45 -20.43781 -65.70858 34455 ft 466 kts 176°
2026-05-05 17:45 -20.46946 -65.70368 34786 ft 465 kts 176°
2026-05-05 17:45 -20.50152 -65.69872 35034 ft 466 kts 176°
2026-05-05 17:45 -20.53364 -65.69374 35280 ft 466 kts 176°
2026-05-05 17:46 -20.56581 -65.68875 35590 ft 465 kts 176°
2026-05-05 17:46 -20.59781 -65.68378 35909 ft 463 kts 176°
2026-05-05 17:46 -20.62971 -65.67882 36220 ft 463 kts 176°
2026-05-05 17:46 -20.66169 -65.67385 36466 ft 463 kts 176°
2026-05-05 17:47 -20.69314 -65.66897 36736 ft 462 kts 176°
2026-05-05 17:47 -20.72503 -65.66401 36975 ft 463 kts 176°
2026-05-05 17:47 -20.75712 -65.65903 36949 ft 467 kts 176°
2026-05-05 17:48 -20.82103 -65.64908 36961 ft 466 kts 176°
2026-05-05 17:48 -20.88464 -65.63913 36970 ft 458 kts 176°
2026-05-05 17:49 -20.94772 -65.62930 36978 ft 458 kts 177°
2026-05-05 17:49 -21.01080 -65.61947 36971 ft 457 kts 177°
2026-05-05 17:50 -21.07374 -65.60964 36979 ft 456 kts 177°
2026-05-05 17:50 -21.13635 -65.59985 36994 ft 457 kts 177°
2026-05-05 17:51 -21.19949 -65.58998 36994 ft 457 kts 177°
2026-05-05 17:51 -21.26228 -65.58015 37002 ft 458 kts 177°
2026-05-05 17:52 -21.32557 -65.57023 36997 ft 459 kts 177°
2026-05-05 17:52 -21.38908 -65.56027 36986 ft 461 kts 177°
2026-05-05 17:53 -21.45224 -65.55035 36992 ft 462 kts 177°
2026-05-05 17:53 -21.51592 -65.54034 36987 ft 463 kts 177°
2026-05-05 17:54 -21.56910 -65.53197 37002 ft 464 kts 178°
2026-05-05 17:54 -21.63330 -65.52186 36984 ft 464 kts 177°
2026-05-05 17:55 -21.69690 -65.51176 36938 ft 457 kts 177°
2026-05-05 17:55 -21.75926 -65.50195 36979 ft 455 kts 178°
2026-05-05 17:56 -21.82211 -65.49207 36993 ft 455 kts 178°
2026-05-05 17:56 -21.88486 -65.48217 37003 ft 456 kts 178°
2026-05-05 17:57 -21.94730 -65.47229 36988 ft 455 kts 178°
2026-05-05 17:57 -22.01029 -65.46232 37022 ft 458 kts 178°
2026-05-05 17:58 -22.07323 -65.45237 37014 ft 461 kts 178°
2026-05-05 17:58 -22.13690 -65.44911 37027 ft 455 kts 187°
2026-05-05 17:59 -22.20035 -65.45062 37020 ft 457 kts 188°
2026-05-05 17:59 -22.26368 -65.45207 37029 ft 458 kts 187°
2026-05-05 18:00 -22.32758 -65.45305 37040 ft 459 kts 187°
2026-05-05 18:00 -22.39134 -65.45384 37048 ft 458 kts 187°
2026-05-05 18:01 -22.45501 -65.45460 37046 ft 457 kts 187°
2026-05-05 18:01 -22.51880 -65.45540 37051 ft 456 kts 187°
2026-05-05 18:02 -22.58227 -65.45620 37053 ft 456 kts 187°
2026-05-05 18:02 -22.64563 -65.45700 37054 ft 455 kts 187°
2026-05-05 18:03 -22.70853 -65.45779 37064 ft 454 kts 187°
2026-05-05 18:03 -22.77187 -65.45859 37058 ft 454 kts 187°
2026-05-05 18:04 -22.83474 -65.45938 37064 ft 454 kts 187°
2026-05-05 18:04 -22.89809 -65.46013 37064 ft 454 kts 187°
2026-05-05 18:05 -22.96141 -65.46088 37059 ft 455 kts 187°
2026-05-05 18:05 -23.02451 -65.46162 37047 ft 455 kts 188°
2026-05-05 18:06 -23.08745 -65.46236 37095 ft 452 kts 188°
2026-05-05 18:06 -23.15059 -65.46313 37080 ft 454 kts 188°
2026-05-05 18:07 -23.21337 -65.46387 37056 ft 453 kts 188°
2026-05-05 18:07 -23.27652 -65.46463 37077 ft 454 kts 188°
2026-05-05 18:08 -23.34005 -65.46540 37055 ft 457 kts 188°
2026-05-05 18:08 -23.40378 -65.46616 37068 ft 458 kts 188°
2026-05-05 18:09 -23.46728 -65.46691 37042 ft 458 kts 189°
2026-05-05 18:09 -23.53078 -65.46765 37044 ft 453 kts 189°
2026-05-05 18:10 -23.59347 -65.46842 37062 ft 453 kts 188°
2026-05-05 18:10 -23.65652 -65.46920 37098 ft 454 kts 189°
2026-05-05 18:11 -23.72022 -65.47002 37036 ft 458 kts 188°
2026-05-05 18:11 -23.78395 -65.47081 37057 ft 460 kts 188°
2026-05-05 18:12 -23.84804 -65.47157 37048 ft 460 kts 188°
2026-05-05 18:12 -23.91211 -65.47234 37060 ft 459 kts 188°
2026-05-05 18:13 -23.97571 -65.47311 37040 ft 458 kts 188°
2026-05-05 18:13 -24.03944 -65.47390 37046 ft 457 kts 188°
2026-05-05 18:14 -24.10293 -65.47469 37053 ft 455 kts 188°
2026-05-05 18:14 -24.16577 -65.47544 37047 ft 453 kts 189°
2026-05-05 18:15 -24.22907 -65.47625 37059 ft 456 kts 189°
2026-05-05 18:15 -24.29241 -65.47707 37054 ft 459 kts 189°
2026-05-05 18:16 -24.35639 -65.47785 37021 ft 458 kts 189°
2026-05-05 18:16 -24.41997 -65.47864 36996 ft 456 kts 189°
2026-05-05 18:17 -24.48300 -65.47941 36991 ft 448 kts 189°
2026-05-05 18:17 -24.51374 -65.47974 37102 ft 447 kts 189°
2026-05-05 18:17 -24.54503 -65.48014 37010 ft 450 kts 189°
2026-05-05 18:18 -24.60764 -65.48095 37023 ft 451 kts 189°
2026-05-05 18:18 -24.67045 -65.48176 37023 ft 454 kts 189°
2026-05-05 18:19 -24.73390 -65.48254 37004 ft 457 kts 189°
2026-05-05 18:19 -24.79775 -65.48333 36997 ft 459 kts 189°
2026-05-05 18:20 -24.85945 -65.49381 37009 ft 439 kts 207°
2026-05-05 18:20 -24.88729 -65.50582 37154 ft 430 kts 215°
2026-05-05 18:20 -24.91318 -65.52170 37523 ft 422 kts 218°
2026-05-05 18:20 -24.93844 -65.53801 37908 ft 418 kts 219°
2026-05-05 18:21 -24.96349 -65.55435 37972 ft 421 kts 219°
2026-05-05 18:21 -25.01409 -65.58725 37992 ft 420 kts 219°
2026-05-05 18:22 -25.06397 -65.61930 37998 ft 415 kts 219°
2026-05-05 18:22 -25.11373 -65.65117 37979 ft 411 kts 219°
2026-05-05 18:23 -25.16330 -65.68296 38000 ft 413 kts 219°
2026-05-05 18:23 -25.21319 -65.71503 38000 ft 420 kts 219°
2026-05-05 18:24 -25.26385 -65.74756 37999 ft 421 kts 219°
2026-05-05 18:24 -25.31440 -65.78000 37964 ft 416 kts 219°
2026-05-05 18:25 -25.36384 -65.81172 37957 ft 407 kts 219°
2026-05-05 18:25 -25.41265 -65.84322 37970 ft 409 kts 220°
2026-05-05 18:26 -25.46195 -65.87506 37957 ft 411 kts 220°
2026-05-05 18:26 -25.51153 -65.90710 37942 ft 414 kts 220°
2026-05-05 18:27 -25.56147 -65.93933 37932 ft 416 kts 220°
2026-05-05 18:27 -25.61130 -65.97151 37914 ft 418 kts 219°
2026-05-05 18:28 -25.68679 -66.02026 37912 ft 418 kts 220°
2026-05-05 18:28 -25.73679 -66.05238 37919 ft 417 kts 220°
2026-05-05 18:29 -25.78708 -66.08477 37920 ft 416 kts 220°
2026-05-05 18:29 -25.83673 -66.11698 37945 ft 415 kts 220°
2026-05-05 18:30 -25.88658 -66.14942 37961 ft 416 kts 220°
2026-05-05 18:30 -25.93585 -66.18170 38041 ft 408 kts 220°
2026-05-05 18:31 -25.98541 -66.21400 38002 ft 418 kts 220°
2026-05-05 18:31 -26.03582 -66.24677 38002 ft 418 kts 220°
2026-05-05 18:32 -26.08598 -66.27942 38024 ft 417 kts 220°
2026-05-05 18:32 -26.13607 -66.31212 38030 ft 416 kts 220°
2026-05-05 18:33 -26.18566 -66.34455 38042 ft 415 kts 221°
2026-05-05 18:33 -26.23554 -66.37721 38035 ft 414 kts 221°
2026-05-05 18:34 -26.28523 -66.40978 38043 ft 413 kts 221°
2026-05-05 18:34 -26.33465 -66.44219 38039 ft 411 kts 221°
2026-05-05 18:35 -26.38375 -66.47445 38035 ft 412 kts 221°
2026-05-05 18:35 -26.43333 -66.50706 38032 ft 413 kts 221°
2026-05-05 18:36 -26.48268 -66.53958 37995 ft 414 kts 221°
2026-05-05 18:36 -26.53245 -66.57234 38015 ft 415 kts 221°
2026-05-05 18:37 -26.58235 -66.60523 37980 ft 417 kts 221°
2026-05-05 18:37 -26.63239 -66.63826 37981 ft 418 kts 221°
2026-05-05 18:38 -26.68226 -66.67123 37977 ft 419 kts 221°
2026-05-05 18:38 -26.73274 -66.70460 37959 ft 420 kts 221°
2026-05-05 18:39 -26.78276 -66.73769 37948 ft 419 kts 221°
2026-05-05 18:39 -26.83301 -66.77100 37918 ft 419 kts 221°
2026-05-05 18:40 -26.88311 -66.80424 37921 ft 416 kts 221°
2026-05-05 18:40 -26.93333 -66.83782 37925 ft 423 kts 224°
2026-05-05 18:41 -26.98351 -66.87200 37920 ft 422 kts 221°
2026-05-05 18:41 -27.02567 -66.89958 37873 ft 418 kts 221°
2026-05-05 18:42 -27.07566 -66.93241 37879 ft 411 kts 221°
2026-05-05 18:42 -27.12503 -66.96526 37890 ft 415 kts 222°
2026-05-05 18:43 -27.17483 -66.99866 37880 ft 421 kts 222°
2026-05-05 18:43 -27.22524 -67.03237 37884 ft 421 kts 221°
2026-05-05 18:44 -27.27581 -67.06621 37878 ft 423 kts 222°
2026-05-05 18:44 -27.32641 -67.10009 37861 ft 423 kts 223°
2026-05-05 18:45 -27.37652 -67.13367 37836 ft 419 kts 222°
2026-05-05 18:45 -27.42643 -67.16713 37865 ft 418 kts 222°
2026-05-05 18:46 -27.47627 -67.20033 37781 ft 413 kts 221°
2026-05-05 18:46 -27.50096 -67.21689 37896 ft 410 kts 223°
2026-05-05 18:46 -27.52551 -67.23352 37823 ft 411 kts 222°
2026-05-05 18:47 -27.57430 -67.26663 37843 ft 413 kts 223°
2026-05-05 18:47 -27.62369 -67.30000 37832 ft 414 kts 223°
2026-05-05 18:48 -27.67304 -67.33323 37799 ft 411 kts 221°
2026-05-05 18:48 -27.72196 -67.36605 37778 ft 413 kts 223°
2026-05-05 18:49 -27.77162 -67.39999 37819 ft 419 kts 223°
2026-05-05 18:49 -27.82183 -67.43404 37806 ft 421 kts 222°
2026-05-05 18:50 -27.87164 -67.46775 37805 ft 417 kts 223°
2026-05-05 18:50 -27.92122 -67.50134 37800 ft 413 kts 222°
2026-05-05 18:51 -27.97049 -67.53472 37813 ft 410 kts 223°
2026-05-05 18:51 -28.01896 -67.56773 37823 ft 408 kts 223°
2026-05-05 18:52 -28.06757 -67.60094 37822 ft 407 kts 223°
2026-05-05 18:52 -28.11614 -67.63406 37826 ft 406 kts 223°
2026-05-05 18:53 -28.16464 -67.66699 37827 ft 407 kts 223°
2026-05-05 18:53 -28.21320 -67.69951 37837 ft 408 kts 223°
2026-05-05 18:54 -28.26210 -67.73224 37802 ft 406 kts 223°
2026-05-05 18:54 -28.31060 -67.76480 37843 ft 407 kts 223°
2026-05-05 18:55 -28.35924 -67.79755 37845 ft 407 kts 223°
2026-05-05 18:55 -28.40817 -67.83052 37858 ft 409 kts 223°
2026-05-05 18:56 -28.45723 -67.86359 37803 ft 407 kts 223°
2026-05-05 18:56 -28.50578 -67.89635 37853 ft 408 kts 223°
2026-05-05 18:57 -28.55458 -67.92929 37857 ft 405 kts 223°
2026-05-05 18:57 -28.60305 -67.96215 37760 ft 408 kts 224°
2026-05-05 18:58 -28.65171 -67.99520 37806 ft 408 kts 224°
2026-05-05 18:58 -28.70057 -68.02845 37799 ft 409 kts 224°
2026-05-05 18:59 -28.74921 -68.06156 37794 ft 409 kts 224°
2026-05-05 18:59 -28.79806 -68.09485 37780 ft 408 kts 224°
2026-05-05 19:00 -28.84688 -68.12816 37774 ft 408 kts 224°
2026-05-05 19:00 -28.89567 -68.16150 37758 ft 408 kts 224°
2026-05-05 19:01 -28.94408 -68.19461 37750 ft 407 kts 224°
2026-05-05 19:01 -28.99275 -68.22794 37745 ft 407 kts 224°
2026-05-05 19:02 -29.04132 -68.26123 37748 ft 407 kts 224°
2026-05-05 19:02 -29.08993 -68.29460 37743 ft 407 kts 224°
2026-05-05 19:03 -29.13823 -68.32778 37740 ft 407 kts 225°
2026-05-05 19:03 -29.18681 -68.36119 37746 ft 406 kts 225°
2026-05-05 19:04 -29.23508 -68.39443 37770 ft 408 kts 224°
2026-05-05 19:04 -29.28381 -68.42804 37757 ft 409 kts 225°
2026-05-05 19:05 -29.33269 -68.46175 37752 ft 408 kts 225°
2026-05-05 19:05 -29.38079 -68.49491 37749 ft 405 kts 225°
2026-05-05 19:06 -29.42905 -68.52836 37757 ft 405 kts 225°
2026-05-05 19:06 -29.47734 -68.56182 37768 ft 405 kts 225°
2026-05-05 19:07 -29.52564 -68.59530 37779 ft 404 kts 225°
2026-05-05 19:07 -29.57347 -68.62863 37800 ft 403 kts 225°
2026-05-05 19:08 -29.62113 -68.66260 37817 ft 403 kts 226°
2026-05-05 19:08 -29.66874 -68.69677 37814 ft 403 kts 226°
2026-05-05 19:09 -29.71610 -68.73075 37820 ft 402 kts 225°
2026-05-05 19:09 -29.76370 -68.76492 37825 ft 403 kts 226°
2026-05-05 19:10 -29.81114 -68.79890 37836 ft 403 kts 226°
2026-05-05 19:10 -29.85891 -68.83315 37825 ft 403 kts 226°
2026-05-05 19:11 -29.90644 -68.86729 37826 ft 403 kts 226°
2026-05-05 19:11 -29.95387 -68.90147 37816 ft 405 kts 226°
2026-05-05 19:12 -30.00125 -68.93556 37795 ft 404 kts 226°
2026-05-05 19:12 -30.04926 -68.97025 37816 ft 408 kts 226°
2026-05-05 19:13 -30.09772 -69.00522 37790 ft 411 kts 226°
2026-05-05 19:13 -30.14589 -69.03998 37789 ft 410 kts 226°
2026-05-05 19:14 -30.19418 -69.07488 37780 ft 408 kts 226°
2026-05-05 19:14 -30.24225 -69.10967 37797 ft 407 kts 226°
2026-05-05 19:15 -30.29019 -69.14445 37768 ft 405 kts 226°
2026-05-05 19:15 -30.33744 -69.17875 37797 ft 402 kts 226°
2026-05-05 19:16 -30.38490 -69.21327 37811 ft 402 kts 226°
2026-05-05 19:16 -30.43202 -69.24758 37820 ft 402 kts 226°
2026-05-05 19:17 -30.47947 -69.28217 37834 ft 403 kts 226°
2026-05-05 19:17 -30.52706 -69.31691 37851 ft 404 kts 226°
2026-05-05 19:18 -30.57453 -69.35159 37865 ft 406 kts 226°
2026-05-05 19:18 -30.62241 -69.38660 37877 ft 407 kts 226°
2026-05-05 19:19 -30.67048 -69.42179 37888 ft 408 kts 226°
2026-05-05 19:19 -30.71871 -69.45714 37886 ft 409 kts 226°
2026-05-05 19:20 -30.76659 -69.49225 37891 ft 408 kts 226°
2026-05-05 19:20 -30.81472 -69.52761 37894 ft 408 kts 226°
2026-05-05 19:21 -30.86256 -69.56281 37894 ft 409 kts 226°
2026-05-05 19:21 -30.91065 -69.59824 37889 ft 410 kts 226°
2026-05-05 19:22 -30.95894 -69.63386 37905 ft 410 kts 226°
2026-05-05 19:22 -31.00717 -69.66945 37919 ft 410 kts 226°
2026-05-05 19:23 -31.05521 -69.70488 37930 ft 411 kts 226°
2026-05-05 19:23 -31.10370 -69.74040 37947 ft 411 kts 226°
2026-05-05 19:24 -31.15202 -69.77577 37970 ft 412 kts 225°
2026-05-05 19:24 -31.20069 -69.81147 37916 ft 412 kts 225°
2026-05-05 19:25 -31.24905 -69.84695 38005 ft 408 kts 226°
2026-05-05 19:25 -31.29715 -69.88240 38014 ft 412 kts 226°
2026-05-05 19:26 -31.34579 -69.91825 38024 ft 415 kts 225°
2026-05-05 19:26 -31.39464 -69.95431 38115 ft 416 kts 225°
2026-05-05 19:27 -31.41913 -69.97239 38012 ft 414 kts 226°
2026-05-05 19:27 -31.44332 -69.99017 38047 ft 408 kts 226°
2026-05-05 19:27 -31.49116 -70.02548 38056 ft 405 kts 227°
2026-05-05 19:28 -31.53894 -70.06093 38077 ft 410 kts 226°
2026-05-05 19:28 -31.58737 -70.09702 37718 ft 424 kts 226°
2026-05-05 19:29 -31.61240 -70.11564 37337 ft 424 kts 225°
2026-05-05 19:29 -31.63798 -70.13309 36720 ft 422 kts 224°
2026-05-05 19:29 -31.66295 -70.15145 35933 ft 422 kts 225°
2026-05-05 19:29 -31.68768 -70.17035 35139 ft 425 kts 225°
2026-05-05 19:30 -31.71245 -70.18932 34475 ft 425 kts 224°
2026-05-05 19:30 -31.73694 -70.20786 33885 ft 422 kts 224°
2026-05-05 19:30 -31.76160 -70.22633 33344 ft 418 kts 224°
2026-05-05 19:30 -31.78605 -70.24456 32797 ft 414 kts 223°
2026-05-05 19:31 -31.81025 -70.26260 32254 ft 410 kts 223°
2026-05-05 19:31 -31.83430 -70.28055 31751 ft 407 kts 223°
2026-05-05 19:31 -31.85010 -70.29235 31424 ft 405 kts 223°
2026-05-05 19:31 -31.88153 -70.31578 30723 ft 401 kts 223°
2026-05-05 19:32 -31.90520 -70.33319 30176 ft 400 kts 222°
2026-05-05 19:32 -31.92890 -70.35009 29646 ft 396 kts 221°
2026-05-05 19:32 -31.95250 -70.36676 29059 ft 393 kts 221°
2026-05-05 19:32 -31.96801 -70.37773 28714 ft 390 kts 221°
2026-05-05 19:33 -31.99110 -70.39410 28307 ft 384 kts 221°
2026-05-05 19:33 -32.01381 -70.41025 28065 ft 376 kts 221°
2026-05-05 19:33 -32.03578 -70.42595 27794 ft 373 kts 222°
2026-05-05 19:33 -32.05806 -70.44198 27535 ft 378 kts 222°
2026-05-05 19:34 -32.08073 -70.45830 27291 ft 384 kts 221°
2026-05-05 19:34 -32.10355 -70.47467 27059 ft 383 kts 221°
2026-05-05 19:34 -32.12637 -70.49098 26770 ft 382 kts 221°
2026-05-05 19:35 -32.17180 -70.52367 25819 ft 385 kts 220°
2026-05-05 19:35 -32.19494 -70.53962 25310 ft 385 kts 220°
2026-05-05 19:35 -32.21773 -70.55590 24775 ft 381 kts 221°
2026-05-05 19:35 -32.23988 -70.57222 24274 ft 377 kts 221°
2026-05-05 19:36 -32.26207 -70.58851 23739 ft 374 kts 221°
2026-05-05 19:36 -32.28405 -70.60453 23168 ft 365 kts 221°
2026-05-05 19:36 -32.30571 -70.62026 22613 ft 363 kts 220°
2026-05-05 19:36 -32.32732 -70.63594 22050 ft 364 kts 220°
2026-05-05 19:37 -32.34901 -70.65164 21466 ft 364 kts 220°
2026-05-05 19:37 -32.37058 -70.66725 20924 ft 363 kts 220°
2026-05-05 19:37 -32.39186 -70.68265 20384 ft 362 kts 219°
2026-05-05 19:37 -32.41333 -70.69821 19848 ft 361 kts 219°
2026-05-05 19:38 -32.43469 -70.71370 19322 ft 360 kts 219°
2026-05-05 19:38 -32.45605 -70.72917 18807 ft 360 kts 218°
2026-05-05 19:38 -32.47737 -70.74466 18300 ft 359 kts 218°
2026-05-05 19:38 -32.49871 -70.76018 17675 ft 360 kts 218°
2026-05-05 19:39 -32.52005 -70.77570 17077 ft 360 kts 218°
2026-05-05 19:39 -32.54153 -70.79133 16460 ft 361 kts 217°
2026-05-05 19:39 -32.56268 -70.80671 15877 ft 361 kts 217°
2026-05-05 19:39 -32.58542 -70.81991 15271 ft 371 kts 201°
2026-05-05 19:40 -32.61129 -70.82352 14745 ft 378 kts 183°
2026-05-05 19:40 -32.63764 -70.82257 14188 ft 375 kts 181°
2026-05-05 19:40 -32.66342 -70.82106 13627 ft 364 kts 180°
2026-05-05 19:40 -32.68825 -70.81968 13091 ft 349 kts 181°
2026-05-05 19:41 -32.71182 -70.81860 12579 ft 336 kts 181°
2026-05-05 19:41 -32.73487 -70.81773 12042 ft 326 kts 181°
2026-05-05 19:41 -32.75725 -70.81690 11560 ft 317 kts 181°
2026-05-05 19:41 -32.77914 -70.81614 11082 ft 312 kts 181°
2026-05-05 19:42 -32.78694 -70.81587 10911 ft 311 kts 181°
2026-05-05 19:42 -32.80529 -70.81522 10568 ft 307 kts 181°
2026-05-05 19:42 -32.82626 -70.81447 10171 ft 302 kts 180°
2026-05-05 19:42 -32.84723 -70.81373 9758 ft 299 kts 180°
2026-05-05 19:43 -32.86794 -70.81298 9355 ft 298 kts 180°
2026-05-05 19:43 -32.88879 -70.81222 8928 ft 300 kts 180°
2026-05-05 19:43 -32.90977 -70.81146 8521 ft 302 kts 180°
2026-05-05 19:43 -32.93075 -70.81186 8106 ft 300 kts 187°
2026-05-05 19:44 -32.95119 -70.81496 7671 ft 293 kts 189°
2026-05-05 19:44 -32.97072 -70.81832 7396 ft 282 kts 189°
2026-05-05 19:44 -32.98984 -70.82146 7130 ft 273 kts 188°
2026-05-05 19:44 -33.00841 -70.82406 6841 ft 265 kts 183°
2026-05-05 19:45 -33.02652 -70.82374 6587 ft 255 kts 177°
2026-05-05 19:45 -33.04426 -70.82255 6560 ft 256 kts 176°
2026-05-05 19:45 -33.06217 -70.82121 6521 ft 259 kts 176°
2026-05-05 19:45 -33.08063 -70.81986 6520 ft 268 kts 176°
2026-05-05 19:46 -33.09921 -70.81847 6434 ft 275 kts 176°
2026-05-05 19:46 -33.11851 -70.81729 6231 ft 277 kts 177°
2026-05-05 19:46 -33.13763 -70.81625 6005 ft 272 kts 177°
2026-05-05 19:46 -33.15643 -70.81528 5702 ft 271 kts 178°
2026-05-05 19:47 -33.17547 -70.81431 5307 ft 274 kts 177°
2026-05-05 19:47 -33.19445 -70.81330 4944 ft 268 kts 178°
2026-05-05 19:47 -33.21286 -70.81230 4595 ft 261 kts 178°
2026-05-05 19:47 -33.23072 -70.81133 4250 ft 250 kts 178°
2026-05-05 19:48 -33.24725 -70.81044 3928 ft 231 kts 178°
2026-05-05 19:48 -33.26281 -70.80960 3524 ft 220 kts 178°
2026-05-05 19:48 -33.27855 -70.80893 2934 ft 226 kts 178°
2026-05-05 19:48 -33.29381 -70.80786 2820 ft 212 kts 175°
2026-05-05 19:49 -33.30815 -70.80699 2602 ft 197 kts 173°
2026-05-05 19:49 -33.31703 -70.80621 2478 ft 193 kts 175°
2026-05-05 19:49 -33.33492 -70.80567 2388 ft 193 kts 176°
2026-05-05 19:49 -33.34771 -70.80526 2237 ft 173 kts 173°
2026-05-05 19:50 -33.36016 -70.80423 2466 ft 191 kts 171°
2026-05-05 19:50 -33.37236 -70.80241 3314 ft 173 kts 174°
2026-05-05 19:50 -33.38389 -70.80094 4276 ft 163 kts 179°
2026-05-05 19:50 -33.39726 -70.80092 4451 ft 220 kts 178°
2026-05-05 19:51 -33.41244 -70.79746 4565 ft 223 kts 164°
2026-05-05 19:51 -33.42740 -70.79231 4657 ft 222 kts 163°
2026-05-05 19:51 -33.44225 -70.78693 4740 ft 223 kts 163°
2026-05-05 19:51 -33.45728 -70.78230 4861 ft 223 kts 173°
2026-05-05 19:52 -33.47279 -70.78110 4983 ft 225 kts 178°
2026-05-05 19:52 -33.48830 -70.77902 4965 ft 224 kts 158°
2026-05-05 19:52 -33.50068 -70.76807 4988 ft 226 kts 124°
2026-05-05 19:52 -33.50629 -70.75015 5029 ft 242 kts 92°
2026-05-05 19:53 -33.50340 -70.73053 5002 ft 240 kts 62°
2026-05-05 19:53 -33.49259 -70.71583 4999 ft 236 kts 30°
2026-05-05 19:53 -33.47705 -70.71020 4992 ft 235 kts 360°
2026-05-05 19:53 -33.46082 -70.71218 4998 ft 234 kts 352°
2026-05-05 19:54 -33.44497 -70.71528 5006 ft 234 kts 352°
2026-05-05 19:54 -33.42875 -70.71747 5001 ft 235 kts 355°
2026-05-05 19:54 -33.41237 -70.71914 4992 ft 236 kts 355°
2026-05-05 19:54 -33.39600 -70.72076 4987 ft 235 kts 355°
2026-05-05 19:55 -33.37966 -70.72241 4995 ft 236 kts 355°
2026-05-05 19:55 -33.36330 -70.72400 4987 ft 236 kts 355°
2026-05-05 19:55 -33.34712 -70.72553 4994 ft 236 kts 355°
2026-05-05 19:55 -33.33076 -70.72706 5003 ft 235 kts 355°
2026-05-05 19:56 -33.31449 -70.72857 4988 ft 233 kts 355°
2026-05-05 19:56 -33.29834 -70.73007 5005 ft 232 kts 355°
2026-05-05 19:56 -33.28217 -70.73154 5004 ft 233 kts 355°
2026-05-05 19:56 -33.26603 -70.73303 4996 ft 231 kts 355°
2026-05-05 19:57 -33.24996 -70.73452 5004 ft 232 kts 355°
2026-05-05 19:57 -33.23929 -70.73550 5000 ft 233 kts 355°
2026-05-05 19:57 -33.21771 -70.73752 5000 ft 236 kts 355°
2026-05-05 19:57 -33.20125 -70.73909 5006 ft 237 kts 355°
2026-05-05 19:58 -33.18479 -70.74063 4989 ft 237 kts 355°
2026-05-05 19:58 -33.16832 -70.74216 4983 ft 235 kts 355°
2026-05-05 19:58 -33.15223 -70.74366 4985 ft 227 kts 355°
2026-05-05 19:58 -33.13739 -70.74711 4979 ft 218 kts 333°
2026-05-05 19:59 -33.12641 -70.75917 4985 ft 216 kts 298°
2026-05-05 19:59 -33.12325 -70.77626 5000 ft 212 kts 264°
2026-05-05 19:59 -33.12862 -70.79186 5009 ft 199 kts 234°
2026-05-05 19:59 -33.13732 -70.80453 4992 ft 199 kts 226°
2026-05-05 20:00 -33.14927 -70.81200 4988 ft 194 kts 185°
2026-05-05 20:00 -33.16259 -70.81290 5009 ft 190 kts 184°
2026-05-05 20:00 -33.17578 -70.81360 5002 ft 190 kts 180°
2026-05-05 20:00 -33.18909 -70.81343 4889 ft 195 kts 178°
2026-05-05 20:01 -33.20215 -70.81285 4758 ft 187 kts 178°
2026-05-05 20:01 -33.21477 -70.81220 4568 ft 178 kts 177°
2026-05-05 20:01 -33.22703 -70.81153 4324 ft 172 kts 178°
2026-05-05 20:01 -33.23867 -70.81090 4123 ft 162 kts 178°
2026-05-05 20:02 -33.24957 -70.81031 3962 ft 153 kts 178°
2026-05-05 20:02 -33.26009 -70.80975 3726 ft 149 kts 178°
2026-05-05 20:02 -33.27004 -70.80920 3570 ft 138 kts 178°
2026-05-05 20:02 -33.27959 -70.80867 3429 ft 137 kts 178°
2026-05-05 20:03 -33.28890 -70.80852 3223 ft 131 kts 181°
2026-05-05 20:03 -33.29810 -70.80821 2995 ft 133 kts 176°
2026-05-05 20:03 -33.30705 -70.80739 2845 ft 127 kts 175°
2026-05-05 20:03 -33.31623 -70.80669 2796 ft 134 kts 178°
2026-05-05 20:04 -33.32562 -70.80631 2687 ft 132 kts 178°
2026-05-05 20:04 -33.33476 -70.80584 2484 ft 134 kts 176°
2026-05-05 20:04 -33.34407 -70.80514 2265 ft 133 kts 176°
2026-05-05 20:04 -33.35302 -70.80495 1995 ft 124 kts 174°
2026-05-05 20:05 -33.36139 -70.80433 1804 ft 118 kts 173°
2026-05-05 20:05 -33.36974 -70.80387 1637 ft 121 kts 174°
2026-05-05 20:05 -33.37770 -70.80339 1571 ft 103 kts 178°
2026-05-05 20:05 -33.38337 -70.80312 1572 ft 64 kts 177°
2026-05-05 20:06 -33.38734 -70.80286 1574 ft 51 kts 177°
2026-05-05 20:06 -33.39054 -70.80272 1572 ft 38 kts 178°
2026-05-05 20:06 -33.39264 -70.80242 1571 ft 25 kts 158°
2026-05-05 20:06 -33.39401 -70.80146 1568 ft 19 kts 148°
2026-05-05 20:07 -33.39467 -70.80096 1566 ft 8 kts 147°
2026-05-05 20:07 -33.39509 -70.80051 1565 ft 8 kts 126°
2026-05-05 20:07 -33.39527 -70.79990 1564 ft 8 kts 101°
2026-05-05 20:07 -33.39528 -70.79919 1564 ft 9 kts 86°
2026-05-05 20:08 -33.39526 -70.79812 1564 ft 16 kts 88°
2026-05-05 20:08 -33.39521 -70.79681 1564 ft 15 kts 88°
2026-05-05 20:08 -33.39516 -70.79556 1563 ft 15 kts 86°
2026-05-05 20:08 -33.39510 -70.79433 1563 ft 16 kts 86°
2026-05-05 20:09 -33.39504 -70.79274 1563 ft 22 kts 87°
2026-05-05 20:09 -33.39496 -70.79103 1563 ft 16 kts 86°
2026-05-05 20:09 -33.39502 -70.79041 1563 ft 0 kts 98°
2026-05-05 20:09 -33.39515 -70.79032 1563 ft 3 kts 175°
2026-05-05 20:10 -33.39534 -70.79047 1563 ft 3 kts 212°
2026-05-05 20:10 -33.39567 -70.79060 1563 ft 3 kts 195°
2026-05-05 20:10 -33.39569 -70.79060 1563 ft 0 kts 195°